CAPE
582 419 214 87 9 29 10 1 10 0 17 79 54 0 0 0 0 15 15 8 4 4 5 7 0 6 17 62 61 2 37 85 140 150 253 525 766 701 702 579 536 415 494 1344
110 218 245 66 0 0 25 25 5 18 36 4 23 57 58 0 0 1 0 0 8 15 30 27 78 101 83 74 38 6 27 171 122 243 560 541 376 563 772 627 687 754 1006 1551
441 384 108 38 3 10 9 32 69 0 85 12 0 0 11 62 14 0 0 0 0 6 30 31 50 99 64 44 43 29 355 398 425 797 728 948 856 800 714 636 620 688 1580 1361
193 99 88 95 3 0 26 49 161 63 49 16 0 11 48 123 89 0 1 3 16 49 43 37 85 105 89 103 65 71 242 357 736 724 511 882 1037 462 372 504 703 992 629 1235
141 19 19 47 7 10 44 168 155 32 0 1 19 0 0 106 97 58 0 9 30 72 63 49 89 155 143 111 79 61 134 156 119 204 626 817 1017 922 661 766 772 24 132 793
12 0 61 6 0 9 18 35 45 33 16 22 0 0 4 20 48 78 44 0 3 19 39 41 81 146 164 158 156 140 152 119 202 400 646 761 1079 1185 859 823 836 522 618 617
0 0 4 0 44 103 52 2 1 0 0 10 17 2 41 28 11 81 108 83 81 39 15 13 110 80 109 187 241 243 252 469 537 502 719 805 1164 1028 981 880 873 728 555 133
0 0 0 0 31 34 12 0 0 0 0 7 31 71 96 56 289 78 160 17 82 76 48 68 198 160 111 151 241 340 366 468 863 974 818 1019 1087 1293 1553 1493 1087 1037 666 437
0 0 0 0 2 1 0 0 0 0 37 8 1 3 44 638 523 308 237 36 0 66 37 48 87 272 155 313 372 515 701 633 770 975 1328 1365 1369 1452 1298 1763 1253 1211 1120 866
0 0 0 0 0 0 19 0 24 32 2 13 14 0 5 334 604 491 380 145 0 0 15 36 98 194 114 202 552 709 991 944 977 1047 1136 1566 1826 1834 1604 1408 1558 1276 1097 971
0 0 0 0 0 0 0 0 0 0 9 1 17 0 0 58 342 499 460 284 67 0 9 75 110 63 108 108 243 836 1145 1163 1130 1238 1298 1404 1659 1965 1906 1554 1610 1758 1451 1202
0 0 0 0 0 0 0 1 0 1 23 0 28 3 101 271 274 565 488 289 33 0 0 39 74 22 57 343 296 815 1156 1097 1119 1126 1332 1478 1725 1954 2048 1961 1787 2098 1999 1256
0 0 0 0 2 2 5 3 0 0 107 71 19 0 0 164 683 564 527 378 91 34 54 96 98 51 1743 1736 1429 694 1130 1368 1257 1320 1521 1787 1907 2088 2125 2042 1862 1763 1699 1735
0 0 0 0 0 0 0 2 4 0 315 372 177 1 244 698 930 696 444 309 233 98 156 369 592 1366 2526 2354 2108 1619 1079 1120 1286 1397 1656 1808 1951 1999 2012 2041 2041 2107 2012 1693
19 0 0 0 0 0 12 39 24 1 0 514 224 66 753 1032 1226 1658 2196 1938 1486 960 1535 2134 2093 2137 2192 2223 2313 2272 2233 2253 1635 1567 1766 1853 2051 2181 2234 2162 2209 2250 2366 2265
4 40 83 71 1 15 47 68 93 13 334 605 595 830 923 1251 1484 1740 1629 1583 1579 1885 1840 2018 2221 2083 2040 2042 2243 2352 2415 2315 2117 2265 2250 2261 2453 2251 2107 2143 2106 1852 1657 1353
0 0 9 12 5 1 17 20 89 207 311 579 766 1037 1175 1160 891 892 1137 1360 1147 1112 1347 1729 1659 1457 1525 1637 1938 1969 2144 2113 1994 2175 2277 2013 1976 1613 1537 1405 1277 1032 744 571
0 0 0 0 0 0 0 106 303 341 322 325 727 1129 889 496 517 693 794 673 846 981 901 606 583 780 972 896 1222 1689 1614 1764 1783 1752 1710 1343 1196 1055 930 1072 1133 941 1120 970
0 0 0 0 4 0 146 218 270 280 241 306 759 808 537 586 733 617 572 602 635 621 444 497 745 641 562 677 925 1526 1581 1492 1422 1458 1443 1472 1425 1404 1365 1234 1074 865 742 728
0 0 0 0 16 4 20 168 74 33 67 331 484 619 361 622 642 497 581 670 513 400 376 397 543 439 672 724 620 750 994 1349 1227 1076 1041 1183 1229 1111 793 781 838 901 813 598
5 0 0 1 20 44 2 128 109 60 66 276 394 153 184 587 485 595 720 410 311 288 323 315 346 516 676 877 828 638 617 515 1030 1293 1358 1279 1349 1097 991 953 1035 846 632 402
26 33 23 5 26 149 7 1 97 124 181 168 296 56 74 220 383 678 682 606 374 290 271 319 269 492 716 672 517 341 426 1167 1522 1617 1127 1241 1283 1283 752 690 741 748 631 548
194 123 74 8 56 221 113 31 101 258 222 141 95 2 140 191 89 79 591 686 287 280 350 330 336 524 618 628 528 154 596 1381 1589 1200 1155 1246 576 600 664 337 396 171 231 303
152 395 259 244 319 623 601 408 264 46 123 61 71 54 59 146 162 35 500 495 197 150 505 268 508 653 788 832 941 738 1100 1231 1519 1073 967 835 603 381 465 166 199 135 0 0
205 416 391 242 207 406 446 345 229 104 40 77 74 143 251 236 370 481 616 415 240 225 333 346 499 598 799 920 1020 1032 994 1140 1613 1233 1008 1050 1082 773 279 573 267 268 48 0
116 110 269 386 253 273 477 313 230 299 207 129 220 56 273 350 597 283 390 518 229 339 431 407 452 613 860 1183 1292 1316 1412 1378 1285 1476 1349 1287 1162 774 760 390 515 0 0 0
CIN
-179 -175 -77 -25 -135 -92 -14 -55 -120 -0 -88 -45 -112 -0 -0 -0 -0 -131 -163 -198 -183 -178 -154 -211 -0 -269 -260 -206 -213 -340 -210 -154 -166 -136 -108 -53 -31 -44 -68 -77 -56 -65 -52 -25
-229 -71 -52 -111 -0 -0 -143 -104 -55 -21 -152 -98 -53 -132 -90 -0 -0 -106 -0 -0 -186 -227 -212 -223 -172 -187 -189 -200 -228 -352 -223 -175 -183 -130 -63 -38 -58 -47 -59 -69 -60 -66 -45 -18
-73 -38 -100 -96 -47 -71 -119 -203 -168 -0 -112 -200 -0 -0 -118 -80 -18 -0 -0 -0 -0 -199 -196 -174 -146 -103 -206 -215 -258 -298 -159 -138 -137 -85 -60 -37 -46 -39 -45 -70 -76 -60 -37 -28
-79 -98 -127 -117 -70 -0 -74 -179 -167 -168 -120 -73 -0 -44 -93 -101 -95 -0 -31 -53 -133 -135 -157 -182 -149 -126 -131 -147 -206 -225 -157 -155 -106 -106 -104 -73 -53 -75 -79 -79 -63 -51 -73 -50
-76 -175 -169 -76 -33 -115 -101 -145 -153 -184 -12 -190 -192 -0 -0 -132 -129 -151 -0 -123 -80 -93 -105 -169 -121 -117 -125 -162 -178 -192 -188 -186 -173 -142 -104 -94 -65 -40 -69 -87 -92 -243 -168 -81
-135 -0 -100 -34 -0 -95 -172 -188 -238 -269 -244 -143 -0 -0 -20 -72 -93 -68 -104 -0 -95 -95 -111 -139 -152 -145 -157 -208 -203 -200 -198 -202 -166 -137 -114 -110 -74 -68 -87 -72 -73 -116 -105 -119
-0 -0 -50 -0 -56 -132 -118 -85 -18 -0 -0 -134 -317 -112 -98 -143 -145 -81 -86 -106 -185 -240 -118 -103 -91 -129 -165 -187 -193 -203 -182 -166 -172 -142 -112 -116 -86 -90 -94 -88 -84 -86 -117 -199
-0 -0 -0 -7 -49 -31 -71 -0 -0 -2 -3 -102 -243 -97 -96 -226 -94 -204 -129 -108 -113 -190 -152 -104 -109 -139 -139 -135 -165 -171 -172 -172 -161 -135 -128 -110 -100 -78 -73 -72 -101 -92 -131 -145
-0 -0 -0 -0 -75 -27 -0 -0 -0 -17 -407 -180 -144 -171 -216 -177 -141 -174 -150 -150 -0 -139 -143 -97 -80 -140 -145 -122 -155 -128 -139 -160 -137 -125 -119 -106 -102 -95 -96 -63 -109 -116 -113 -109
-0 -0 -0 -15 -0 -0 -38 -8 -79 -211 -57 -71 -130 -0 -90 -132 -134 -175 -164 -171 -0 -0 -105 -151 -195 -149 -156 -117 -134 -124 -139 -133 -132 -121 -139 -124 -108 -103 -110 -103 -71 -128 -136 -133
-0 -0 -0 -0 -0 -0 -0 -0 -12 -36 -94 -23 -57 -0 -0 -177 -174 -123 -148 -207 -250 -0 -81 -117 -134 -198 -219 -191 -143 -118 -135 -142 -145 -134 -126 -142 -132 -118 -120 -127 -99 -95 -135 -155
-0 -0 -0 -0 -0 -0 -0 -118 -0 -36 -95 -1 -130 -111 -306 -253 -183 -177 -104 -174 -322 -0 -0 -226 -195 -224 -222 -111 -129 -113 -128 -130 -133 -124 -134 -131 -133 -127 -124 -122 -117 -76 -90 -149
-0 -0 -0 -0 -35 -74 -72 -83 -13 -0 -184 -128 -100 -20 -0 -283 -128 -130 -95 -143 -242 -282 -251 -215 -178 -250 -109 -109 -87 -109 -101 -146 -143 -131 -126 -135 -123 -116 -112 -106 -102 -109 -103 -97
-5 -0 -0 -0 -0 -0 -0 -53 -120 -0 -62 -106 -97 -77 -188 -174 -113 -78 -116 -165 -198 -265 -227 -179 -167 -103 -98 -114 -101 -104 -121 -147 -138 -131 -132 -103 -94 -80 -73 -78 -76 -64 -65 -69
-51 -0 -0 -2 -0 -0 -128 -91 -101 -19 -0 -41 -110 -129 -146 -113 -50 -58 -51 -70 -92 -121 -112 -69 -67 -64 -61 -74 -80 -80 -106 -110 -144 -126 -102 -82 -71 -62 -57 -51 -52 -47 -34 -44
-54 -27 -66 -65 -61 -147 -111 -79 -98 -82 -104 -74 -168 -117 -175 -130 -81 -46 -49 -52 -61 -51 -72 -91 -95 -83 -74 -93 -103 -92 -83 -85 -103 -103 -88 -85 -58 -70 -55 -48 -39 -46 -77 -101
-9 -0 -69 -35 -125 -69 -77 -125 -145 -146 -174 -94 -81 -89 -183 -132 -104 -117 -96 -85 -110 -129 -118 -115 -114 -104 -78 -63 -60 -69 -62 -78 -78 -66 -56 -58 -68 -78 -75 -84 -98 -127 -164 -190
-0 -0 -0 -0 -0 -0 -59 -139 -186 -163 -203 -195 -141 -168 -222 -226 -225 -169 -130 -136 -130 -146 -139 -152 -180 -158 -135 -147 -92 -52 -67 -62 -66 -67 -91 -130 -126 -120 -133 -118 -103 -108 -83 -86
-0 -0 -0 -0 -129 -0 -96 -151 -123 -90 -79 -272 -172 -198 -221 -191 -132 -141 -157 -118 -126 -145 -185 -191 -149 -154 -158 -137 -117 -45 -36 -44 -53 -59 -58 -61 -67 -68 -66 -67 -72 -81 -84 -71
-0 -0 -0 -0 -85 -64 -157 -192 -301 -272 -191 -170 -225 -193 -210 -164 -116 -146 -211 -126 -135 -173 -223 -231 -173 -178 -104 -101 -137 -130 -96 -50 -53 -69 -80 -69 -64 -73 -90 -88 -74 -65 -60 -58
-79 -17 -0 -45 -45 -91 -119 -245 -357 -243 -127 -140 -234 -264 -249 -123 -211 -275 -222 -198 -222 -225 -263 -287 -240 -129 -96 -83 -96 -124 -134 -148 -84 -57 -52 -54 -42 -52 -62 -60 -50 -51 -63 -96
-44 -55 -56 -98 -33 -11 -14 -62 -188 -114 -209 -159 -263 -346 -239 -239 -209 -213 -182 -152 -198 -231 -219 -253 -229 -118 -83 -97 -139 -202 -160 -86 -55 -43 -73 -60 -53 -44 -71 -69 -68 -55 -51 -48
-22 -34 -19 -42 -41 -84 -166 -199 -171 -143 -73 -291 -345 -48 -441 -257 -184 -225 -147 -110 -192 -200 -172 -257 -191 -123 -102 -103 -109 -249 -105 -73 -55 -63 -58 -55 -111 -73 -52 -108 -79 -150 -102 -93
-56 -88 -46 -50 -72 -41 -65 -162 -199 -298 -285 -446 -502 -565 -623 -390 -337 -242 -187 -135 -180 -227 -143 -222 -123 -77 -75 -83 -68 -68 -72 -72 -53 -59 -60 -56 -70 -113 -81 -193 -153 -172 -28 -0
-88 -58 -53 -65 -100 -99 -114 -111 -216 -327 -441 -491 -496 -486 -451 -402 -369 -300 -237 -182 -135 -135 -130 -115 -78 -70 -67 -69 -53 -58 -53 -53 -33 -43 -39 -35 -38 -39 -128 -53 -143 -146 -233 -0
-111 -87 -49 -34 -55 -73 -59 -158 -255 -225 -296 -355 -235 -257 -158 -275 -193 -331 -252 -221 -151 -83 -78 -78 -70 -65 -76 -51 -30 -27 -21 -19 -24 -24 -30 -33 -33 -42 -43 -80 -68 -0 -60 -0
Wind_Speed
15 13 13 11 14 17 19 14 17 18 15 16 15 18 24 28 27 26 25 27 27 28 28 29 30 28 29 29 26 24 23 22 22 22 22 22 19 17 17 17 16 16 16 17
11 13 15 13 16 14 14 14 7 11 13 15 14 21 23 27 28 26 25 26 27 27 28 30 28 26 29 28 27 24 22 22 23 22 22 21 19 15 16 17 17 16 16 17
18 19 19 11 12 13 7 10 15 20 21 9 15 19 24 26 29 27 24 26 28 28 27 29 27 30 31 27 27 22 20 19 20 20 19 21 19 18 15 15 15 17 16 17
25 21 5 21 14 14 18 17 24 20 20 12 10 13 22 23 26 29 25 26 27 27 28 26 25 29 29 25 23 22 20 20 20 19 20 19 18 16 15 16 14 16 14 16
27 25 22 18 18 16 12 27 25 23 20 20 9 16 16 22 24 25 27 25 25 25 26 29 23 25 27 23 20 22 21 21 20 21 21 19 17 15 14 14 14 14 16 18
28 23 13 13 15 14 19 21 19 21 18 18 8 11 12 19 21 21 21 25 26 25 28 32 21 22 23 18 19 19 20 21 20 19 20 20 18 14 12 11 13 14 16 15
26 25 14 12 13 15 13 15 15 17 22 18 12 10 14 12 12 16 12 9 15 7 27 17 26 17 21 17 18 16 16 20 22 17 16 18 17 12 13 12 12 14 14 13
23 21 15 11 9 17 20 18 13 15 9 12 11 12 12 13 9 17 16 25 4 10 19 17 22 25 34 19 15 18 18 18 18 17 15 14 14 11 11 11 12 13 13 11
19 20 19 18 12 7 17 18 11 13 13 16 15 12 11 9 22 19 15 20 18 19 12 11 36 31 31 28 22 19 17 19 17 15 12 12 13 11 13 10 9 10 10 10
28 31 25 19 17 15 23 13 14 16 18 18 13 15 17 5 20 20 19 16 18 22 17 17 35 30 27 34 24 20 17 17 19 15 13 11 12 12 12 12 11 9 9 8
21 23 28 23 18 20 19 14 16 15 16 22 18 16 11 15 16 18 19 17 19 19 30 31 31 21 20 24 31 20 18 17 16 16 14 11 12 12 11 11 12 9 8 8
22 20 27 27 27 27 25 22 20 21 23 15 13 14 16 15 16 16 17 18 21 23 27 27 30 25 24 26 28 23 17 17 18 17 13 14 12 10 8 9 10 8 5 8
18 24 28 29 23 16 16 16 21 22 10 3 9 14 11 10 12 16 19 19 21 22 22 23 23 23 26 22 15 24 18 19 15 10 12 11 11 8 6 5 5 7 8 7
8 17 20 22 21 19 21 22 20 17 12 3 8 7 7 12 16 17 17 18 20 20 20 18 17 6 17 16 17 19 6 14 9 6 6 6 6 5 3 1 2 3 4 5
13 13 15 23 21 19 20 21 24 18 11 3 5 9 12 16 16 16 17 17 16 18 17 15 12 10 11 13 13 13 14 13 2 6 5 5 8 9 12 13 13 17 19 11
18 17 16 22 22 19 15 21 24 14 3 4 6 8 12 14 15 14 17 18 16 17 17 16 14 12 11 12 13 14 14 13 10 9 10 12 12 14 16 16 17 20 23 25
19 15 20 25 23 21 18 21 18 11 4 5 7 12 13 13 14 20 18 18 14 12 14 15 15 15 15 15 14 13 13 12 11 11 11 13 15 18 19 20 22 23 23 24
12 11 15 21 20 20 19 15 8 4 4 8 3 9 11 11 9 10 14 15 12 11 13 15 15 16 16 16 15 14 13 13 13 13 14 15 15 16 17 18 20 20 22 24
6 12 19 20 18 17 11 12 10 11 15 13 7 10 8 8 10 12 11 9 8 11 13 15 16 16 16 16 16 16 15 13 13 14 14 15 15 16 17 18 19 20 21 23
5 9 18 17 19 19 12 8 4 7 20 6 8 11 10 9 10 11 11 8 9 11 13 15 16 16 15 16 16 17 15 15 15 15 15 16 16 16 17 18 19 21 22 23
8 15 11 16 20 20 8 4 9 5 5 16 11 5 6 11 1 7 3 4 11 11 13 15 15 15 15 15 16 17 18 18 18 18 18 18 18 19 18 19 20 21 22 24
13 20 25 17 17 21 3 5 7 6 6 8 1 7 0 2 2 2 4 8 7 9 12 13 13 14 16 15 16 17 18 19 20 20 19 19 20 19 20 20 21 21 21 23
16 16 15 16 16 8 6 9 14 9 8 9 6 9 5 5 4 28 9 9 2 6 12 12 14 15 15 15 16 17 18 18 19 18 18 18 18 18 18 19 20 23 23 22
16 14 9 10 7 4 5 7 7 9 7 8 7 8 5 3 4 28 25 23 4 9 15 12 14 13 14 15 16 16 17 17 16 16 16 17 17 17 16 17 18 19 19 20
16 14 9 7 8 6 6 6 7 8 8 8 8 8 7 3 13 21 21 26 23 14 13 16 13 13 14 15 15 16 16 16 16 16 16 15 14 13 13 12 12 14 16 17
14 12 11 9 4 10 4 7 10 11 12 13 15 16 14 21 29 25 26 24 20 15 17 15 13 14 13 15 16 16 16 16 16 17 15 13 13 11 12 11 11 16 16 16
Wind_Direction
142 114 104 151 59 51 101 156 254 269 244 230 220 100 136 151 153 148 153 161 167 176 183 188 189 189 180 170 158 156 154 153 156 164 170 180 180 166 157 165 172 175 161 166
43 146 214 157 112 79 64 324 270 222 264 117 232 179 193 170 172 168 162 167 172 177 185 188 172 157 167 158 161 157 150 154 155 157 165 180 176 151 150 148 154 174 159 152
185 219 252 12 107 10 203 87 86 105 90 171 202 214 199 204 191 186 173 178 179 176 177 184 168 172 170 157 161 149 139 132 141 143 146 180 193 193 102 117 141 152 137 160
240 248 202 282 234 29 303 130 109 97 91 63 238 278 195 192 189 187 180 177 177 180 187 170 159 164 165 158 152 150 140 141 145 141 147 149 147 143 135 145 126 146 130 151
229 269 316 306 290 13 315 112 113 90 76 50 262 55 223 175 192 182 182 178 177 175 177 171 155 160 165 157 150 152 147 149 154 157 163 160 151 136 120 102 115 144 153 177
233 292 291 302 266 357 94 90 64 75 74 35 282 230 240 176 187 179 173 180 189 178 183 186 161 158 163 156 154 152 153 159 155 153 163 171 164 126 121 98 120 146 155 141
242 251 307 317 322 69 157 268 270 296 300 180 178 211 148 140 184 165 135 125 292 220 242 195 236 162 163 159 162 157 153 164 170 158 157 168 162 131 126 116 127 137 136 135
263 258 274 319 312 269 170 301 307 289 299 239 160 227 247 269 162 123 139 167 5 303 256 246 249 250 214 169 163 167 168 169 164 164 159 159 161 145 131 132 141 142 144 130
261 259 269 298 313 301 256 319 31 16 214 282 291 213 192 316 41 86 121 156 163 147 256 236 228 238 241 184 174 167 167 171 168 165 155 156 162 152 160 136 128 146 148 137
247 248 267 284 300 283 263 96 324 320 242 264 236 232 212 281 79 78 98 129 152 163 146 154 205 230 245 202 180 168 165 166 171 166 160 150 153 155 152 156 149 144 141 137
257 265 256 286 298 276 272 301 328 348 331 270 242 238 99 132 106 92 106 114 138 148 160 184 209 243 269 247 197 172 167 165 163 163 159 151 157 154 147 147 149 139 143 153
258 269 264 273 283 264 264 284 307 318 299 310 319 236 153 115 133 110 108 109 125 138 159 173 208 253 250 239 242 184 179 171 170 167 158 163 160 152 147 156 166 160 141 162
268 262 264 272 286 279 275 289 309 321 347 65 341 337 332 73 86 114 113 113 123 132 149 173 193 226 247 271 293 203 182 183 174 167 167 163 164 158 152 164 175 182 190 196
296 269 274 268 271 281 268 280 307 325 299 7 344 45 53 90 105 105 105 116 124 139 144 165 179 69 290 299 297 291 257 183 192 201 194 186 178 177 183 285 298 282 270 249
295 287 268 264 268 283 280 285 294 304 318 325 95 100 114 119 108 102 97 89 88 114 114 98 67 30 342 328 332 328 317 320 309 264 248 242 305 313 318 318 319 317 318 310
276 267 283 266 274 285 287 299 298 310 308 338 102 91 105 104 101 99 104 106 92 90 90 81 59 42 32 12 350 334 329 335 341 335 315 313 313 315 320 323 326 325 322 322
280 279 273 256 270 271 279 289 294 304 291 104 128 119 115 112 116 124 119 115 96 65 57 48 36 27 10 356 356 351 343 341 343 344 333 325 319 319 320 324 325 328 331 336
284 289 291 271 292 258 279 294 317 8 334 295 359 112 120 117 104 114 120 111 91 66 47 34 22 22 29 23 9 1 358 354 354 345 341 342 342 342 343 343 344 345 344 343
290 303 294 278 287 276 284 285 293 315 279 301 123 119 103 84 94 119 124 111 88 73 62 42 47 47 45 38 34 31 17 9 7 6 4 359 357 357 353 353 353 356 358 359
291 303 296 273 275 271 279 289 321 4 189 336 130 137 132 120 135 135 120 106 91 85 64 53 71 57 48 39 36 30 30 29 25 20 18 18 18 11 8 9 7 4 7 9
270 268 252 278 270 275 126 237 75 12 95 149 142 124 148 153 124 123 117 75 93 84 78 75 77 64 79 58 51 44 50 55 57 51 47 43 38 34 30 24 26 24 20 13
270 257 259 277 278 265 108 298 110 126 34 112 31 296 257 285 66 132 169 281 75 84 80 71 64 83 85 70 67 62 75 95 104 83 63 61 56 66 49 36 31 42 38 28
275 278 277 293 294 311 133 151 156 5 39 333 341 323 5 6 264 209 249 273 353 68 100 79 85 87 78 81 83 85 105 111 102 91 95 77 70 75 74 65 54 37 41 48
283 286 289 306 326 37 50 23 44 349 26 14 21 9 356 2 130 212 222 231 65 79 104 82 101 87 80 104 109 107 121 117 107 100 102 99 96 98 95 83 70 60 59 52
290 291 289 287 295 339 359 40 61 37 52 43 32 56 46 204 231 218 225 204 147 104 100 118 101 92 104 115 117 118 124 120 124 126 125 130 126 122 121 109 98 83 67 67
294 288 285 277 282 304 350 85 84 71 83 93 100 111 122 221 209 215 209 222 141 113 119 113 109 114 108 128 133 134 133 127 134 143 146 161 161 145 140 133 108 65 67 66